Wind_Speed
6 4 2 1 3 6 9 12 14 16 18 20 21 22 23 25 25 25 26 27 27 28 28 29 30 30 31 31 32 32 33 33 34 35 35 36 34 34 35 35 34 35 35
10 7 5 3 1 1 4 6 9 12 14 16 17 18 20 21 22 23 25 26 27 28 28 29 30 30 31 31 31 32 32 32 32 32 32 32 32 32 32 32 33 33 33
12 10 7 6 4 1 1 2 4 6 9 11 13 15 17 18 19 21 23 25 26 27 27 27 28 28 29 30 30 30 30 29 29 29 29 30 30 31 31 31 31 30 30
16 14 12 10 8 6 4 1 2 3 5 7 9 11 13 14 16 17 19 21 22 23 24 24 24 23 24 25 25 26 27 27 28 28 28 27 27 27 27 26 25 24 24
18 17 15 13 11 9 7 5 4 2 3 4 6 8 10 11 13 15 16 17 17 18 19 20 20 21 22 22 22 22 23 24 24 24 25 24 24 23 21 21 20 20 19
18 17 16 15 14 12 11 9 7 5 4 3 4 6 8 9 10 11 13 13 15 16 17 17 17 17 19 19 19 18 17 17 16 17 18 18 18 17 16 16 16 15 16
19 18 17 15 14 13 12 11 9 8 7 5 5 6 7 8 9 10 10 11 12 13 14 15 14 14 14 15 15 15 15 14 13 13 13 13 13 13 13 13 13 14 15
20 19 18 17 16 15 14 13 12 10 9 7 6 6 6 6 7 8 9 11 11 12 12 12 12 12 12 12 13 12 12 13 12 12 13 12 12 11 11 12 13 13 14
20 20 19 18 17 16 16 14 13 12 11 9 8 8 7 6 5 4 5 6 8 8 9 9 9 10 10 10 11 11 11 11 11 10 10 10 9 9 10 11 12 13 14
20 20 20 19 18 18 17 17 16 14 13 11 10 9 8 7 6 4 2 4 5 6 7 8 8 8 9 10 10 10 9 9 9 9 9 9 9 9 9 10 10 11 12
20 20 20 20 19 19 19 18 17 16 15 13 12 11 10 9 7 5 3 1 3 4 6 7 7 8 8 9 9 9 8 8 8 8 8 8 8 8 8 8 8 9 10
20 20 20 20 20 20 19 19 19 17 16 15 14 13 12 11 10 8 6 4 3 3 5 6 6 7 7 8 8 8 7 7 6 6 7 6 6 6 6 5 5 6 6
21 21 21 21 21 20 20 19 19 19 18 17 16 15 15 14 13 12 10 8 7 6 6 6 6 7 7 7 7 6 6 6 6 5 5 5 5 5 4 3 2 2 2
20 21 21 20 20 21 20 20 20 20 19 18 17 17 16 15 15 14 13 12 11 9 8 8 8 7 7 7 6 5 5 5 5 5 5 4 4 4 3 2 1 0 0
19 20 20 20 20 20 20 20 20 20 20 20 19 18 17 17 16 15 14 14 13 11 10 9 9 8 8 7 6 6 6 6 5 5 5 4 4 4 4 3 2 2 2
18 18 19 19 19 19 19 20 20 20 20 20 19 19 18 17 17 16 16 15 14 13 13 12 11 10 10 9 8 8 7 6 6 6 6 5 5 5 5 4 4 3 3
16 17 18 18 18 18 18 18 19 19 19 19 19 19 19 18 17 17 16 16 15 15 14 13 12 11 11 10 9 9 8 8 7 7 7 7 6 6 5 4 4 3 3
14 15 15 16 16 16 17 17 17 17 17 18 18 18 18 18 18 18 17 16 16 15 15 14 13 13 12 11 11 10 9 9 9 8 8 7 6 6 5 4 4 4 3
12 13 14 14 15 15 15 15 15 16 16 16 16 16 17 17 17 17 16 16 15 15 14 14 13 13 12 11 11 11 10 10 9 8 7 7 6 6 5 5 4 4 4
10 11 12 12 12 13 13 13 13 14 14 14 14 14 14 14 15 15 15 15 14 14 13 13 12 12 11 11 10 10 9 9 8 8 7 7 7 6 5 5 4 4 3
9 9 9 10 11 11 11 11 12 11 12 12 12 12 12 12 12 12 13 13 13 13 12 12 12 11 11 10 9 9 9 8 8 7 7 6 5 5 4 3 3 3 3
8 8 8 8 9 9 9 9 9 10 10 10 10 10 10 10 10 10 10 10 10 10 10 10 10 9 9 9 8 8 7 7 6 6 5 4 4 3 3 2 2 3 3
9 9 9 8 8 8 8 8 8 8 7 8 8 8 8 8 8 7 7 7 7 7 7 7 7 7 6 6 6 5 5 5 4 4 4 3 3 3 3 3 3 3 4
11 11 10 10 9 9 9 8 8 7 7 7 6 6 6 6 5 5 5 5 5 5 5 4 4 4 4 4 4 3 3 3 3 3 3 3 3 3 3 3 4 4 5
14 13 12 12 11 11 10 10 9 9 8 8 7 7 6 6 6 5 5 4 4 4 4 3 3 3 3 3 3 3 2 2 3 3 3 3 4 4 4 5 5 6 6
17 16 15 15 14 14 13 13 12 11 11 11 10 10 9 9 8 8 7 7 7 7 6 6 5 5 5 5 5 5 5 5 5 5 5 5 5 6 6 7 7 7 8
Wind_Direction
32 31 8 296 247 230 226 230 229 228 230 235 238 241 242 244 243 244 245 245 246 248 250 251 252 253 251 252 252 253 253 253 255 257 257 257 259 259 257 256 257 257 257
40 38 43 35 24 232 233 234 230 231 232 233 236 240 243 241 242 244 246 248 249 251 251 252 253 253 252 252 252 253 255 255 256 257 256 254 254 255 255 255 256 255 255
40 40 42 51 51 54 223 226 230 228 233 236 240 242 243 244 245 247 249 249 251 252 252 252 252 253 252 251 252 253 254 254 253 254 254 252 252 253 256 256 257 255 254
49 49 52 53 53 53 55 62 253 240 243 246 248 250 251 251 250 249 250 250 251 250 250 250 249 249 249 248 250 251 251 251 251 251 250 250 251 252 252 254 254 254 254
48 46 45 45 44 44 41 35 26 4 303 264 259 259 256 258 256 255 254 248 245 244 246 246 247 246 244 244 246 246 246 246 246 246 245 246 248 247 246 246 249 251 252
44 42 40 41 42 38 34 29 21 7 346 310 287 283 272 266 263 260 254 248 243 243 245 243 242 243 241 239 240 239 238 238 238 239 240 241 243 245 246 246 248 252 257
41 39 40 40 39 36 33 27 21 12 2 342 320 306 293 281 273 266 260 254 246 241 240 240 237 235 234 232 230 228 226 227 230 233 235 236 237 241 244 247 253 257 260
39 38 37 36 35 33 30 28 25 21 12 3 353 336 315 300 287 274 259 249 243 233 228 226 225 228 228 228 226 223 223 222 224 229 233 237 239 241 243 248 253 259 266
37 36 35 33 32 30 29 27 25 23 20 16 9 358 348 336 322 299 259 237 230 222 215 214 216 221 220 218 217 216 220 222 223 226 230 234 237 241 246 252 258 264 269
35 34 33 33 32 31 30 29 27 26 24 21 18 13 10 4 353 338 290 224 216 217 209 207 207 204 202 204 206 207 211 214 214 220 225 229 234 240 247 253 261 268 274
35 34 33 33 34 33 32 31 29 29 28 26 26 25 24 23 22 27 34 121 185 193 194 196 197 195 193 194 200 205 206 208 211 216 222 226 231 237 243 252 263 271 278
35 35 34 34 35 34 33 32 32 32 32 33 35 36 37 37 40 46 50 64 108 151 164 168 174 179 180 183 186 189 193 199 205 209 214 219 224 230 239 250 264 277 286
35 35 36 36 36 36 35 35 35 36 38 40 43 44 45 46 49 54 58 69 89 114 132 141 150 159 165 169 175 179 183 187 193 201 204 207 211 216 223 234 256 284 300
36 36 36 37 37 37 37 38 39 41 43 45 47 49 50 52 54 57 62 67 78 92 110 124 132 140 145 153 161 167 170 177 183 186 187 188 190 191 192 188 183 152 29
35 35 36 36 37 38 39 40 41 43 45 48 50 52 53 55 57 60 63 68 74 83 95 108 116 123 127 129 130 134 143 153 162 166 166 164 161 159 155 142 120 100 87
33 34 35 36 38 39 40 42 43 44 46 49 51 52 54 57 59 63 66 70 74 80 86 92 98 107 110 111 112 117 121 125 131 138 142 143 140 141 139 127 112 98 81
30 31 33 34 37 39 41 43 44 46 47 49 51 53 55 58 61 65 68 71 75 78 82 86 90 94 97 98 99 104 106 106 110 116 121 124 123 124 125 119 107 91 71
24 27 29 31 33 36 39 41 44 46 48 50 52 54 57 59 62 65 68 71 74 77 80 83 86 88 90 92 94 95 97 100 103 107 110 114 115 113 111 105 96 85 71
17 21 24 27 30 32 35 38 41 43 46 48 50 53 56 58 61 63 66 69 71 75 77 80 83 85 87 89 91 92 93 96 99 102 103 104 106 106 104 98 90 80 68
9 14 18 21 24 27 30 33 36 39 42 45 47 49 52 55 57 59 61 64 67 70 73 76 78 81 83 86 88 90 90 91 93 95 97 98 99 99 97 91 81 69 54
352 358 5 12 16 20 23 26 29 32 36 39 41 44 47 50 53 55 58 61 63 66 69 72 75 78 80 81 83 86 87 88 89 91 92 94 93 91 85 74 59 44 30
333 337 342 348 357 5 11 16 19 23 27 30 33 36 39 43 47 50 53 56 59 61 64 67 70 72 73 74 77 79 80 81 81 80 80 78 76 73 64 50 33 18 7
317 319 322 326 331 337 345 353 360 4 9 14 19 23 26 30 35 39 43 47 50 53 56 57 59 60 61 62 63 66 67 66 65 62 59 58 58 53 44 31 18 8 2
303 304 306 309 312 315 318 322 328 335 340 343 348 352 356 1 6 13 18 22 25 29 32 35 37 38 38 37 37 41 46 46 43 41 39 37 29 20 10 1 353 347 344
291 292 293 294 296 299 301 303 305 307 311 315 316 317 318 319 320 321 322 326 331 335 341 344 346 347 348 351 354 357 360 360 359 356 354 352 347 343 338 334 332 332 332
282 283 284 284 285 286 288 289 291 292 293 295 296 298 298 298 298 298 297 297 298 298 299 301 302 303 303 304 306 307 308 309 312 314 316 318 320 320 319 318 319 320 322
Height
5777 5775 5774 5774 5775 5775 5776 5777 5779 5781 5783 5786 5788 5790 5792 5794 5796 5798 5800 5802 5804 5806 5807 5809 5810 5811 5813 5814 5815 5817 5818 5819 5821 5822 5823 5824 5825 5826 5827 5829 5830 5831 5832
5779 5778 5776 5776 5776 5776 5776 5776 5777 5778 5780 5782 5784 5786 5787 5789 5790 5792 5793 5795 5797 5798 5800 5801 5802 5804 5805 5806 5807 5809 5810 5811 5813 5813 5815 5816 5817 5818 5819 5821 5821 5822 5823
5783 5781 5779 5778 5777 5776 5776 5776 5776 5777 5778 5779 5780 5781 5782 5783 5784 5785 5787 5788 5789 5791 5792 5793 5795 5796 5797 5798 5799 5801 5802 5803 5805 5806 5807 5808 5809 5810 5812 5813 5814 5815 5816
5786 5784 5782 5781 5779 5778 5777 5777 5776 5776 5777 5777 5777 5777 5778 5778 5779 5780 5781 5782 5783 5784 5785 5786 5787 5788 5790 5791 5792 5793 5795 5797 5798 5799 5800 5801 5802 5804 5805 5806 5807 5808 5809
5791 5788 5786 5783 5782 5780 5779 5777 5776 5776 5775 5774 5775 5774 5774 5774 5775 5775 5775 5776 5776 5777 5778 5779 5781 5782 5783 5785 5786 5787 5789 5790 5791 5793 5794 5796 5797 5798 5799 5800 5802 5803 5804
5795 5792 5789 5786 5784 5782 5780 5778 5776 5775 5774 5773 5772 5772 5771 5771 5770 5770 5770 5770 5771 5772 5773 5774 5775 5777 5778 5779 5781 5782 5784 5785 5786 5788 5789 5790 5792 5793 5795 5796 5797 5798 5799
5799 5795 5792 5789 5787 5784 5781 5779 5777 5775 5773 5772 5770 5769 5768 5767 5767 5766 5766 5766 5766 5767 5768 5770 5771 5772 5773 5775 5776 5778 5779 5781 5783 5784 5785 5786 5788 5789 5791 5792 5793 5794 5795
5802 5799 5795 5792 5789 5786 5783 5780 5778 5775 5773 5771 5769 5767 5766 5764 5763 5762 5762 5762 5762 5763 5764 5766 5767 5768 5770 5772 5773 5775 5776 5778 5779 5781 5782 5784 5785 5786 5788 5789 5790 5791 5791
5805 5802 5798 5795 5792 5788 5785 5782 5779 5776 5773 5771 5769 5766 5764 5762 5760 5759 5759 5758 5759 5760 5761 5762 5764 5766 5768 5769 5771 5773 5774 5775 5777 5779 5780 5781 5783 5784 5785 5786 5787 5787 5787
5809 5805 5802 5798 5794 5791 5787 5783 5780 5777 5774 5771 5769 5766 5764 5761 5759 5757 5757 5757 5757 5758 5759 5760 5762 5764 5766 5767 5769 5771 5772 5773 5775 5777 5778 5779 5781 5782 5783 5784 5784 5784 5784
5812 5808 5805 5801 5797 5793 5790 5786 5782 5779 5776 5772 5769 5767 5764 5761 5759 5757 5756 5756 5756 5756 5758 5759 5761 5762 5764 5766 5768 5769 5770 5772 5773 5775 5776 5777 5779 5780 5780 5781 5781 5781 5780
5816 5812 5808 5804 5800 5796 5793 5789 5785 5781 5778 5774 5771 5768 5765 5763 5760 5758 5757 5756 5756 5757 5758 5759 5760 5762 5764 5765 5767 5768 5770 5771 5772 5773 5775 5776 5777 5778 5778 5779 5779 5778 5777
5819 5815 5811 5807 5803 5800 5796 5792 5788 5784 5781 5777 5774 5771 5768 5765 5763 5761 5759 5758 5758 5758 5758 5759 5761 5762 5764 5765 5767 5768 5769 5770 5772 5773 5773 5774 5775 5776 5777 5777 5777 5776 5775
5822 5818 5815 5811 5807 5803 5799 5796 5792 5788 5784 5781 5778 5775 5772 5769 5767 5765 5763 5762 5761 5760 5761 5761 5762 5763 5765 5766 5767 5768 5769 5770 5771 5772 5773 5774 5774 5775 5776 5776 5776 5776 5775
5825 5822 5818 5814 5811 5807 5803 5800 5796 5792 5789 5786 5782 5779 5777 5774 5772 5769 5767 5766 5765 5764 5764 5764 5765 5766 5767 5767 5768 5769 5770 5770 5771 5772 5773 5774 5774 5775 5775 5776 5776 5775 5775
5828 5825 5821 5818 5814 5811 5807 5804 5800 5797 5794 5790 5787 5784 5782 5779 5776 5774 5772 5771 5770 5769 5768 5768 5768 5769 5769 5770 5770 5771 5771 5772 5772 5773 5773 5774 5775 5775 5776 5776 5776 5776 5775
5831 5828 5824 5821 5818 5815 5811 5808 5805 5802 5798 5795 5792 5790 5787 5784 5782 5780 5778 5776 5775 5774 5773 5773 5773 5773 5773 5773 5773 5773 5774 5774 5774 5774 5775 5775 5776 5776 5777 5777 5777 5776 5776
5833 5830 5827 5824 5821 5818 5815 5812 5809 5806 5803 5800 5798 5795 5792 5790 5787 5785 5783 5782 5781 5779 5779 5778 5777 5777 5777 5777 5777 5777 5776 5776 5776 5777 5777 5777 5778 5778 5778 5778 5778 5777 5777
5834 5831 5829 5826 5824 5821 5818 5815 5812 5810 5807 5804 5802 5800 5797 5795 5793 5791 5789 5787 5786 5785 5783 5783 5782 5781 5781 5781 5780 5780 5780 5780 5780 5779 5779 5779 5779 5779 5779 5779 5778 5778 5777
5834 5832 5830 5828 5825 5823 5820 5818 5815 5813 5810 5808 5806 5804 5801 5799 5798 5796 5794 5792 5791 5789 5788 5787 5786 5786 5785 5784 5784 5783 5783 5783 5782 5782 5782 5781 5781 5781 5780 5780 5779 5779 5778
5834 5832 5830 5828 5826 5824 5822 5820 5817 5815 5813 5811 5809 5807 5805 5803 5801 5800 5798 5796 5795 5794 5792 5791 5790 5789 5788 5788 5787 5787 5786 5785 5785 5784 5784 5783 5783 5782 5782 5781 5780 5779 5778
5833 5831 5830 5828 5826 5825 5823 5821 5819 5817 5815 5813 5811 5809 5807 5806 5804 5803 5801 5800 5798 5797 5796 5795 5794 5793 5792 5791 5790 5789 5788 5788 5787 5786 5785 5785 5784 5783 5782 5781 5780 5779 5778
5831 5830 5828 5827 5825 5824 5822 5821 5819 5817 5816 5814 5812 5811 5809 5808 5806 5805 5803 5802 5801 5800 5798 5797 5796 5795 5794 5793 5792 5791 5790 5789 5788 5787 5786 5785 5785 5784 5782 5781 5780 5779 5778
5828 5827 5826 5824 5823 5822 5821 5819 5818 5817 5815 5814 5812 5811 5810 5808 5807 5806 5804 5803 5802 5801 5800 5799 5798 5797 5795 5794 5793 5792 5791 5790 5789 5788 5787 5786 5785 5784 5782 5781 5780 5779 5777
5824 5823 5822 5821 5820 5819 5818 5817 5816 5815 5813 5812 5811 5810 5809 5808 5806 5805 5804 5803 5802 5801 5800 5799 5798 5797 5796 5794 5793 5792 5791 5790 5789 5788 5787 5786 5784 5783 5782 5781 5779 5778 5776
5818 5818 5817 5816 5815 5815 5814 5813 5812 5811 5810 5809 5808 5807 5806 5805 5804 5803 5802 5801 5800 5799 5798 5797 5797 5796 5795 5794 5793 5792 5791 5790 5788 5787 5786 5785 5783 5782 5781 5779 5778 5776 5774